TimeEDT,TemperatureF,Dew PointF,Humidity,Sea Level PressureIn,VisibilityMPH,Wind Direction,Wind SpeedMPH,Gust SpeedMPH,PrecipitationIn,Events,Conditions,WindDirDegrees,DateUTC
12:54 AM,48.9,32.0,52,30.23,10.0,West,8.1,-,N/A,,Clear,260,2014-04-13 04:54:00
1:54 AM,48.9,30.9,50,30.23,10.0,WSW,10.4,-,N/A,,Clear,240,2014-04-13 05:54:00
2:54 AM,48.0,30.0,50,30.22,10.0,WSW,10.4,-,N/A,,Partly Cloudy,240,2014-04-13 06:54:00
3:54 AM,48.9,28.9,46,30.22,10.0,WSW,9.2,-,N/A,,Mostly Cloudy,250,2014-04-13 07:54:00
4:54 AM,48.0,30.0,50,30.21,10.0,SW,9.2,-,N/A,,Mostly Cloudy,230,2014-04-13 08:54:00
5:54 AM,46.0,30.0,54,30.21,10.0,SW,9.2,-,N/A,,Clear,230,2014-04-13 09:54:00
6:54 AM,46.9,32.0,56,30.21,10.0,SW,11.5,-,N/A,,Mostly Cloudy,220,2014-04-13 10:54:00
7:54 AM,48.9,32.0,52,30.21,10.0,SW,11.5,-,N/A,,Overcast,220,2014-04-13 11:54:00
8:54 AM,48.9,33.1,54,30.21,10.0,South,6.9,-,N/A,,Overcast,180,2014-04-13 12:54:00
9:54 AM,48.9,37.0,64,30.24,4.0,ESE,6.9,-,0.01,Rain,Rain,120,2014-04-13 13:54:00
10:54 AM,43.0,39.9,89,30.23,10.0,ENE,6.9,-,0.05,,Overcast,70,2014-04-13 14:54:00
11:54 AM,46.0,42.1,86,30.20,10.0,ENE,8.1,-,N/A,,Overcast,70,2014-04-13 15:54:00
12:35 PM,48.9,42.1,77,30.17,10.0,East,8.1,-,N/A,,Overcast,80,2014-04-13 16:35:00
12:54 PM,51.1,43.0,74,30.17,10.0,SE,9.2,-,N/A,,Overcast,130,2014-04-13 16:54:00
1:42 PM,57.9,42.1,56,30.14,10.0,SE,9.2,-,N/A,,Scattered Clouds,140,2014-04-13 17:42:00
1:54 PM,61.0,42.1,50,30.14,10.0,SE,8.1,-,N/A,,Clear,130,2014-04-13 17:54:00
2:54 PM,64.9,42.1,43,30.10,10.0,South,17.3,-,N/A,,Partly Cloudy,180,2014-04-13 18:54:00
3:54 PM,66.9,46.9,49,30.05,10.0,South,15.0,-,N/A,,Clear,190,2014-04-13 19:54:00
4:54 PM,66.9,48.9,52,30.04,10.0,SSW,12.7,-,N/A,,Clear,200,2014-04-13 20:54:00
5:54 PM,66.9,50.0,54,30.04,10.0,SSW,10.4,-,N/A,,Clear,200,2014-04-13 21:54:00
6:54 PM,64.9,50.0,58,30.02,10.0,SW,12.7,-,N/A,,Clear,230,2014-04-13 22:54:00
7:54 PM,63.0,48.9,60,30.03,10.0,SW,12.7,-,N/A,,Clear,230,2014-04-13 23:54:00
8:54 PM,61.0,48.9,64,30.04,10.0,SSW,15.0,-,N/A,,Clear,210,2014-04-14 00:54:00
9:54 PM,60.1,46.9,62,30.04,10.0,SW,15.0,-,N/A,,Clear,220,2014-04-14 01:54:00
10:54 PM,59.0,46.9,64,30.04,10.0,SW,17.3,-,N/A,,Clear,220,2014-04-14 02:54:00
11:54 PM,57.9,48.9,72,30.03,10.0,SW,15.0,-,N/A,,Clear,220,2014-04-14 03:54:00